Regional Weather Roundup
Issued by NWS

Home | Current Version | Previous Version | Text Only | Print | Product List | Glossary On
Versions: 1 2 3 4 5 6 7 8 9 10 11 12 13 14 15 16 17 18 19 20 21 22 23 24 25 26 27 28 29 30 31 32 33 34 35 36 37 38 39 40 41 42 43 44 45 46 47 48 49 50
000
ASUS43 KBIS 310310
RWRND

NORTH DAKOTA REGIONAL WEATHER ROUNDUP
NATIONAL WEATHER SERVICE BISMARCK ND
1000 PM CDT SUN AUG 30 2015

NOTE: "FAIR" INDICATES FEW OR NO CLOUDS BELOW 12,000 FEET WITH NO
SIGNIFICANT WEATHER AND/OR OBSTRUCTIONS TO VISIBILITY.


NDZ001>003-009>011-017-310400-
NORTHWEST NORTH DAKOTA

CITY           SKY/WX    TMP DP  RH WIND       PRES   REMARKS
WILLISTON      MOCLDY    66  49  54 N3        29.71S
MINOT          MOCLDY    69  54  58 NW9       29.68R
MINOT AFB      MOCLDY    68  56  66 NW6       29.67S
$$

NDZ018>021-031>035-040>046-310400-
SOUTHWEST NORTH DAKOTA

CITY           SKY/WX    TMP DP  RH WIND       PRES   REMARKS
BISMARCK       PTCLDY    80  56  43 N9        29.65R
DICKINSON      MOCLDY    70  51  51 NE8       29.71S
GARRISON         N/A     71  58  63 NW9       29.68S
HETTINGER ARPT MOCLDY    74  52  46 N10       29.72F
$$

NDZ004>008-012>016-024-026-027-054-310400-
NORTHEAST NORTH DAKOTA

CITY           SKY/WX    TMP DP  RH WIND       PRES   REMARKS
GRAND FORKS    PTCLDY    76  69  79 S14       29.66R
GRND FRKS AFB  PTCLDY    77  69  77 S15       29.66S
DEVILS LAKE    CLEAR     77  64  65 S10       29.65R
$$

NDZ022-023-025-028>030-036>039-047>053-310400-
SOUTHEAST NORTH DAKOTA

CITY           SKY/WX    TMP DP  RH WIND       PRES   REMARKS
FARGO          PTCLDY    76  68  76 S18G24    29.72R
JAMESTOWN      PTCLDY    75  68  78 S14       29.69R
$$



USA.gov is the U.S. government's official web portal to all federal, state and local government web resources and services.